EDDN

Nuremberg Airport

Airport
ICAO code
EDDN
IATA Code
NUE
Summary
ICAO Region
EUR
ICAO Territory
Location

Nuremberg, Bavaria, Germany,

Serving
Nuremberg
Elevation
1046 ft
Coordinates
49° 29' 51" N , 11° 4' 37" E
KCC
Airport WX
Fog
Metar
EDDN 181620Z AUTO 33003KT 260V050 9999 FEW035 SCT047 09/03 Q1016 RESHGS BECMG NSW

Description

International airport 5 km north of the city centre.

Climatology

Temperate Marine climate/Oceanic climate (Köppen climate classification Cfb). Moderately cool summer and comparatively warm winter with a temperature range of only 14°C. Prevailing south-westerly winds from the Atlantic Ocean.

Runways

Designator Length Width Surface Rops
10/28 2700 45 ASP Yes/Yes

SKYbrary Partners:

Safety knowledge contributed by: